Location: Axtheid
(49.6213°N, 11.8205°E)
Time: 16:01:03
(UTC+00:00)

Envisat - Pass Details

Date: 09 October 2022
Orbit: 763 x 765 km, 98.2° (Epoch: 30 November)

Event Time Altitude Azimuth Distance (km) Brightness Sun altitude
Rises 03:32:36 0° 15° (NNE) 3,246 6.6 -18.8°
Reaches altitude 10° 03:34:56 10° 18° (NNE) 2,315 5.9 -18.5°
Maximum altitude 03:40:02 72° 103° (ESE) 807 3.2 -17.6°
Drops below altitude 10° 03:45:05 10° 188° (S) 2,296 5.3 -16.8°
Sets 03:47:23 0° 190° (S) 3,218 6.0 -16.5°
